Flag for Syria Weather past 2 weeks in Damascus, Syria

Now
91 °F

Sunny.


Feels Like: 88 °F
Forecast: 60 / 94 °F
Wind: 23 mph from Southwest

Location: Damascus Int. Airport

Current Time: Jul 26, 2014 at 2:24:50 PM

Latest Report: Jul 26, 2014 at 2:00 PM


Visibility: 10 mi

Pressure: 29.80 "Hg

Humidity: 20%

Dew point: 45 °F

Location of DamascusLocation

Historic Weather in Damascus — Graph

°F

Damascus temperature yesterday

Maximum temperature yesterday: 99 °F (at 3:00 PM)
Minimum temperature yesterday: 66 °F (at 5:00 AM)
Average temperature yesterday: 80 °F

Past Weeks' High & Low Weather Summary

 TemperatureHumidityPressure
High109 °F (Jul 12, 3:00 PM)94% (Jul 17, 6:00 AM)29.92 "Hg (Jul 17, 6:00 AM)
Low64 °F (Jul 17, 6:00 AM)10% (Jul 12, 3:00 PM)29.68 "Hg (Jul 21, 1:00 AM)
Average80 °F48%29.79 "Hg
* Reported Jul 11 12:00 Noon — Jul 26 12:00 Noon, Damascus, Weather by CustomWeather, © 2014

Note: Actual official high and low records may vary slightly from our data, if they occured in-between our weather recording intervals... More about our weather records

Advertising

Damascus weather history for previous 24 hours

 ConditionsComfort  
Time TempWeatherWind HumidityBarometerVisibility
12:00 PM
Jul 26
90 °FSunny.23 mph22%29.80 "Hg10 mi
11:00 AM84 °FSunny.16 mph35%29.80 "Hg10 mi
10:00 AM79 °FSunny.12 mph51%29.83 "Hg10 mi
9:00 AM73 °FSunny.12 mph61%29.80 "Hg10 mi
8:00 AM70 °FSunny.9 mph73%29.80 "Hg10 mi
7:00 AM64 °FSunny.12 mph88%29.80 "Hg10 mi
6:00 AM64 °FClear.16 mph88%29.80 "Hg10 mi
5:00 AM64 °FClear.21 mph88%29.77 "Hg10 mi
4:00 AM66 °FClear.25 mph83%29.77 "Hg10 mi
3:00 AM66 °FClear.28 mph83%29.77 "Hg10 mi
2:00 AM68 °FClear.23 mph78%29.77 "Hg10 mi
1:00 AM68 °FClear.23 mph78%29.77 "Hg10 mi
12:00 AM70 °FClear.23 mph73%29.77 "Hg10 mi
11:00 PM
Jul 25
72 °FClear.25 mph61%29.77 "Hg10 mi
10:00 PM75 °FClear.25 mph50%29.74 "Hg10 mi
9:00 PM77 °FClear.25 mph44%29.74 "Hg10 mi
8:00 PM81 °FSunny.25 mph37%29.71 "Hg10 mi
7:00 PM88 °FSunny.18 mph29%29.71 "Hg10 mi
6:00 PM93 °FSunny.32 mph20%29.68 "Hg10 mi
5:00 PM95 °FSunny.30 mph18%29.68 "Hg10 mi
4:00 PM99 °FSunny.32 mph16%29.68 "Hg10 mi
3:00 PM99 °FSunny.30 mph17%29.68 "Hg10 mi
2:00 PM95 °FSunny.30 mph25%29.71 "Hg10 mi
Weather by CustomWeather, © 2014

See weather overviewHow to use our weather pages